Location: Holkham
(52.9500°N, 0.8167°E)
Time: 13:03:28
(UTC+00:00)

Cosmos 2221 - Pass Details

Date: 20 December 2025
Orbit: 569 x 589 km, 82.5° (Epoch: 25 January)

Event Time Altitude Azimuth Distance (km) Brightness Sun altitude
Rises 18:48:14 0° 209° (SSW) 2,783 6.4 -26.5°
Reaches altitude 10° 18:50:32 10° 217° (SW) 1,886 5.5 -26.8°
Maximum altitude 18:54:27 40° 288° (WNW) 863 3.7 -27.4°
Enters shadow 18:55:13 36° 315° (NW) 923 3.7 -27.5°
